Weather in Katarman

Philippines     12°30′12″N   124°38′18″E
temp.,
°C
wind,
m/s
gust,
m/s
humid.,
%
clouds,
%
prec.,
mm/h
press.,
hPa
HPBL,
m
9 may, sun
sun923:00+25ese129362 0.0 1010119
02:00+24se129519 0.0 100982
05:00+24se129585 0.4 100978
08:00+28e1376100 0.4 1011546
11:00+30nne457585 0.4 1009712
14:00+27ne4790100 3.4 1007448
17:00+27ne378695 2.4 1008434
20:00+26e249166 2.7 1009228
10 may, mon
mon1023:00+25e249452 0.3 1010179
02:00+25e229467 1.4 1008162
05:00+25e229392 0.2 1008169
08:00+28e248485 0.6 1010507
11:00+30nne337556 0.8 1008700
14:00+28ne3588100 5.4 1008314
17:00+27ene2490100 2.7 1008177
20:00+25ese2592100 2.7 1010186
11 may, tue
tue1123:00+24se239455 0.3 1010102
02:00+24se229533 0.6 100888
05:00+24se2396100 0.8 1009104
08:00+26ese25918 1.4 1010276
11:00+31ne4564100 0.4 10091252
14:00+31ne5663100 0.6 10071261
17:00+28ene477770 0.1 1007581
20:00+26ese379099 0.1 1010327
12 may, wed
wed1223:00+25ese259598 0.0 1010220
02:00+24se2495100 0.0 1008136
05:00+24ese249688 0.1 1009126
08:00+28e357831 0.3 1010750
11:00+31ene456111 0.1 10081243
14:00+32ne565929 0.2 10061456
17:00+29ene57755 0.1 1006623
20:00+25e369090 0.1 1009286
13 may, thu
thu1323:00+25e249396 0.1 1009200
02:00+25e239315 0.1 1007193
05:00+25e239323 0.1 1008210
08:00+28ene368311 0.6 1009682
11:00+30ene467113 1.6 10081044
14:00+30ne576893 1.9 10061088
17:00+27ene478376 0.4 1006706
20:00+25ene389462 4.1 1008416